sat.trackr.live / text

‹ back to catalog

STARLINK-11591 [DTC]

NORAD 63116 · 2025-039N

PAYLOAD ACTIVE UNKNOWN

§ Identity

Operator
Country
US
Launch date
2025-02-27
Launch site
AFETR
Launch vehicle
Mass (kg)
RCS (m²)

Purposes: comms

External: N2YO · Heavens-Above · Gunter

§ Orbital elements

Epoch: 2026-05-25T00:20:38.079168Z

Period
91.67 min
Inclination
42.9989°
Eccentricity
0.0001575
Mean motion
15.70911028 rev/d
Perigee alt
355.2 km
Apogee alt
357.4 km
Semi-major
6,734.4 km
B*
1.5990e-3
RAAN
136.3975°
Arg perigee
239.1029°
Mean anomaly
120.9684°
Rev number
7,162

§ Raw data

STARLINK-11591 [DTC]1 63116U 25039N   26145.01432962  .00210636  00000+0  15990-2 0  99942 63116  42.9989 136.3975 0001575 239.1029 120.9684 15.70911028 71628

JSON: /api/v1/satellites/63116 · /tle

For live sub-satellite position, see the globe view (requires WebGL).

§ Visibility from observer

Set your observer location to see the next 7 days of passes ≥ 10°. The values pass through the URL so the page stays shareable.

No JS? Fill the form by hand. The geolocation button needs JavaScript.